When you browse on this site, cookies collect data to enhance your experience and personalize the content and advertising you see.
Visit our Privacy Policy to learn more. By continuing to use the site, you agree to this use of cookies and data.
  • In Hungary
  • List of Countries
  • For 7 days
  • Water Temperature
  • Weather Map
  • News
  • Weather Widgets
  • user-avatar
    Login

    Hourly Weather Lentevo

    Today, 24 January, Friday

    Time Temperature Precipitation Wind Pressure Humidity
    00:00 -4°C° 0.1 mm 4 mps 741 mmHg 76%
    01:00 -4°C° 0.1 mm 4 mps 740 mmHg 83%
    02:00 -4°C° 0 mm 4 mps 740 mmHg 87%
    03:00 -4°C° 0.1 mm 4 mps 739 mmHg 89%
    04:00 -5°C° 0.1 mm 5 mps 738 mmHg 91%
    05:00 -4°C° 0.1 mm 5 mps 737 mmHg 93%
    06:00 -4°C° 0.2 mm 5 mps 737 mmHg 93%
    07:00 -4°C° 0.2 mm 6 mps 736 mmHg 93%
    08:00 -4°C° 0 mm 5 mps 736 mmHg 91%
    09:00 -2°C° 0.1 mm 5 mps 736 mmHg 93%
    10:00 -2°C° 0.1 mm 5 mps 736 mmHg 94%
    11:00 -1°C° 0.1 mm 5 mps 736 mmHg 96%
    12:00 -2°C° 0 mm 6 mps 735 mmHg 95%
    13:00 -1°C° 0 mm 6 mps 734 mmHg 93%
    14:00 -1°C° 0 mm 7 mps 734 mmHg 92%
    15:00 -1°C° 0.1 mm 6 mps 734 mmHg 92%
    16:00 -1°C° 0.1 mm 6 mps 733 mmHg 91%
    17:00 +1°C° 0.1 mm 6 mps 733 mmHg 91%
    18:00 +1°C° 0.4 mm 6 mps 733 mmHg 92%
    19:00 +1°C° 0.4 mm 6 mps 733 mmHg 94%
    20:00 +1°C° 0.4 mm 6 mps 733 mmHg 95%
    21:00 +1°C° 0.1 mm 6 mps 733 mmHg 94%
    22:00 +1°C° 0.1 mm 6 mps 733 mmHg 92%
    23:00 +1°C° 0.1 mm 6 mps 732 mmHg 91%

    Tomorrow, 25 January, Saturday

    Time Temperature Precipitation Wind Pressure Humidity
    00:00 +1°C° 0 mm 6 mps 733 mmHg 91%
    01:00 +1°C° 0 mm 6 mps 733 mmHg 91%
    02:00 +1°C° 0 mm 5 mps 733 mmHg 91%
    03:00 +1°C° 0 mm 5 mps 732 mmHg 91%
    04:00 0°C° 0 mm 5 mps 732 mmHg 92%
    05:00 0°C° 0 mm 5 mps 732 mmHg 92%
    06:00 0°C° 0 mm 5 mps 732 mmHg 92%
    07:00 0°C° 0 mm 5 mps 732 mmHg 91%
    08:00 -1°C° 0 mm 6 mps 731 mmHg 91%
    09:00 +1°C° 0.1 mm 6 mps 731 mmHg 89%
    10:00 +1°C° 0.1 mm 6 mps 731 mmHg 88%
    11:00 0°C° 0.1 mm 7 mps 732 mmHg 86%
    12:00 +1°C° 0 mm 6 mps 732 mmHg 83%
    13:00 +1°C° 0 mm 6 mps 732 mmHg 80%
    14:00 -1°C° 0 mm 6 mps 732 mmHg 77%
    15:00 -1°C° 0 mm 6 mps 732 mmHg 79%
    16:00 -2°C° 0 mm 6 mps 732 mmHg 80%
    17:00 -2°C° 0 mm 6 mps 733 mmHg 82%
    18:00 -3°C° 0 mm 6 mps 733 mmHg 80%
    19:00 -2°C° 0 mm 5 mps 734 mmHg 79%
    20:00 -2°C° 0 mm 5 mps 734 mmHg 77%
    21:00 -4°C° 0 mm 5 mps 735 mmHg 77%
    22:00 -4°C° 0 mm 5 mps 735 mmHg 77%
    23:00 -4°C° 0 mm 5 mps 736 mmHg 77%

    Day after tomorrow, 26 January, Sunday

    Time Temperature Precipitation Wind Pressure Humidity
    00:00 -4°C° 0 mm 5 mps 737 mmHg 77%
    01:00 -4°C° 0 mm 4 mps 737 mmHg 77%
    02:00 -4°C° 0 mm 4 mps 738 mmHg 78%
    03:00 -4°C° 0 mm 4 mps 738 mmHg 79%
    04:00 -4°C° 0 mm 4 mps 739 mmHg 80%
    05:00 -5°C° 0 mm 4 mps 739 mmHg 81%
    06:00 -5°C° 0 mm 3 mps 740 mmHg 82%
    07:00 -5°C° 0 mm 3 mps 740 mmHg 83%
    08:00 -4°C° 0 mm 2 mps 741 mmHg 84%
    09:00 -4°C° 0 mm 3 mps 741 mmHg 80%
    10:00 -2°C° 0 mm 3 mps 741 mmHg 76%
    11:00 -2°C° 0 mm 4 mps 741 mmHg 72%
    12:00 -1°C° 0 mm 4 mps 741 mmHg 71%
    13:00 -1°C° 0 mm 5 mps 741 mmHg 71%
    14:00 -1°C° 0 mm 6 mps 741 mmHg 70%
    15:00 0°C° 0 mm 5 mps 740 mmHg 75%
    16:00 -1°C° 0 mm 5 mps 740 mmHg 80%
    17:00 -1°C° 0 mm 5 mps 740 mmHg 85%
    18:00 -1°C° 0 mm 5 mps 740 mmHg 85%
    19:00 -1°C° 0 mm 5 mps 740 mmHg 85%
    20:00 -1°C° 0 mm 5 mps 740 mmHg 85%
    21:00 -1°C° 0 mm 5 mps 740 mmHg 86%
    22:00 -1°C° 0 mm 5 mps 740 mmHg 86%
    23:00 -1°C° 0 mm 4 mps 741 mmHg 86%

    27 January, Monday

    Time Temperature Precipitation Wind Pressure Humidity
    00:00 -1°C° 0 mm 4 mps 740 mmHg 88%
    01:00 -1°C° 0 mm 4 mps 740 mmHg 89%
    02:00 -1°C° 0 mm 4 mps 740 mmHg 90%
    03:00 -1°C° 0 mm 4 mps 740 mmHg 92%
    04:00 -1°C° 0 mm 4 mps 740 mmHg 93%
    05:00 -1°C° 0 mm 4 mps 740 mmHg 94%
    06:00 -1°C° 0 mm 4 mps 740 mmHg 95%
    07:00 -1°C° 0 mm 4 mps 740 mmHg 96%
    08:00 -1°C° 0 mm 4 mps 740 mmHg 96%
    09:00 0°C° 0 mm 4 mps 740 mmHg 96%
    10:00 0°C° 0 mm 4 mps 740 mmHg 96%
    11:00 0°C° 0 mm 4 mps 740 mmHg 97%
    12:00 0°C° 0 mm 4 mps 740 mmHg 94%
    13:00 0°C° 0 mm 4 mps 740 mmHg 92%
    14:00 0°C° 0 mm 4 mps 740 mmHg 89%
    15:00 +1°C° 0 mm 3 mps 740 mmHg 90%
    16:00 0°C° 0 mm 3 mps 739 mmHg 91%
    17:00 0°C° 0 mm 3 mps 739 mmHg 92%
    18:00 -1°C° 0 mm 3 mps 739 mmHg 93%
    19:00 -1°C° 0 mm 2 mps 739 mmHg 94%
    20:00 -1°C° 0 mm 2 mps 739 mmHg 94%
    21:00 -2°C° 0 mm 2 mps 739 mmHg 95%
    22:00 -2°C° 0 mm 2 mps 739 mmHg 95%
    23:00 -2°C° 0 mm 2 mps 739 mmHg 95%

    28 January, Tuesday

    Time Temperature Precipitation Wind Pressure Humidity
    00:00 -2°C° 0 mm 2 mps 738 mmHg 95%
    01:00 -2°C° 0 mm 2 mps 738 mmHg 95%
    02:00 -2°C° 0 mm 2 mps 738 mmHg 95%
    03:00 -2°C° 0.1 mm 2 mps 738 mmHg 95%
    04:00 -2°C° 0.1 mm 2 mps 738 mmHg 96%
    05:00 -2°C° 0.1 mm 2 mps 738 mmHg 96%
    06:00 -2°C° 0 mm 2 mps 737 mmHg 96%
    07:00 -2°C° 0 mm 2 mps 737 mmHg 97%
    08:00 -2°C° 0 mm 2 mps 737 mmHg 97%
    09:00 -2°C° 0 mm 2 mps 737 mmHg 94%
    10:00 -1°C° 0 mm 2 mps 737 mmHg 91%
    11:00 -1°C° 0 mm 2 mps 737 mmHg 89%
    12:00 +1°C° 0 mm 2 mps 737 mmHg 88%
    13:00 +1°C° 0 mm 2 mps 737 mmHg 87%
    14:00 0°C° 0 mm 3 mps 737 mmHg 87%
    15:00 0°C° 0 mm 3 mps 737 mmHg 89%
    16:00 -1°C° 0 mm 2 mps 737 mmHg 92%
    17:00 -1°C° 0 mm 2 mps 736 mmHg 94%
    18:00 -1°C° 0 mm 2 mps 736 mmHg 95%
    19:00 -1°C° 0 mm 2 mps 736 mmHg 96%
    20:00 0°C° 0 mm 3 mps 736 mmHg 97%
    21:00 -1°C° 0 mm 3 mps 736 mmHg 97%
    22:00 -1°C° 0 mm 3 mps 736 mmHg 96%
    23:00 -2°C° 0 mm 4 mps 736 mmHg 96%

    29 January, Wednesday

    Time Temperature Precipitation Wind Pressure Humidity
    00:00 -2°C° 0 mm 4 mps 735 mmHg 95%
    01:00 -2°C° 0 mm 4 mps 735 mmHg 94%
    02:00 -2°C° 0 mm 4 mps 735 mmHg 93%
    03:00 -2°C° 0 mm 5 mps 734 mmHg 93%
    04:00 -2°C° 0 mm 5 mps 734 mmHg 94%
    05:00 -2°C° 0 mm 5 mps 734 mmHg 94%
    06:00 -2°C° 0 mm 5 mps 733 mmHg 93%
    07:00 -2°C° 0 mm 5 mps 733 mmHg 93%
    08:00 -3°C° 0 mm 6 mps 733 mmHg 92%
    09:00 -3°C° 0.1 mm 6 mps 732 mmHg 93%
    10:00 -3°C° 0.1 mm 6 mps 732 mmHg 94%
    11:00 -3°C° 0.1 mm 6 mps 732 mmHg 95%
    12:00 -2°C° 0.6 mm 6 mps 731 mmHg 96%
    13:00 -1°C° 0.6 mm 5 mps 731 mmHg 96%
    14:00 -1°C° 0.6 mm 5 mps 730 mmHg 97%
    15:00 -1°C° 0.7 mm 4 mps 730 mmHg 97%
    16:00 -1°C° 0.7 mm 4 mps 730 mmHg 97%
    17:00 -1°C° 0.7 mm 4 mps 729 mmHg 97%
    18:00 0°C° 0.6 mm 3 mps 729 mmHg 97%
    19:00 0°C° 0.6 mm 3 mps 729 mmHg 98%
    20:00 0°C° 0.6 mm 3 mps 729 mmHg 98%
    21:00 +1°C° 0.2 mm 2 mps 729 mmHg 98%
    22:00 +1°C° 0.2 mm 2 mps 729 mmHg 98%
    23:00 +1°C° 0.2 mm 2 mps 729 mmHg 98%
    Show more